Location: Pradons
(44.4746°N, 4.3578°E)
Time: 17:50:08
(UTC+00:00)

Cosmos 1703 - Pass Details

Date: 10 August 2020
Orbit: 523 x 541 km, 82.5° (Epoch: 30 September)

Event Time Altitude Azimuth Distance (km) Brightness Sun altitude
Rises 03:36:00 0° 344° (NNW) 2,710 7.1 -10.8°
Reaches altitude 10° 03:38:15 10° 338° (NNW) 1,812 6.1 -10.5°
Maximum altitude 03:42:01 42° 267° (W) 780 3.7 -9.9°
Drops below altitude 10° 03:45:44 10° 196° (SSW) 1,791 5.5 -9.4°
Enters shadow 03:47:18 - 191° (S) 2,412 6.2 -9.2°
